,,,PA_Meas_PMT16A,,PR_Meas_QMR101_102,,RH_Meas_QMH101,,SR_Meas_QMS101,,TA_Meas_QMH101,,GenWind,,GenWind,
date,time,status,PA,status,PR,status,RH,status,SR,status,TA,status,DirAvg,status,SpdAvg,
2011-09-25, 00:00:04,VALID,1005.1,VALID,0,INVALID,163.716,VALID,0,VALID,24.6148,VALID,322,VALID,0,
2011-09-25, 00:01:04,VALID,1005.08,VALID,0,INVALID,163.716,VALID,0,VALID,24.6574,VALID,322,VALID,0,
2011-09-25, 00:02:04,VALID,1005.05,VALID,0,INVALID,163.701,VALID,0,VALID,24.6166,VALID,338,VALID,0,
2011-09-25, 00:03:04,VALID,1005.06,VALID,0,INVALID,163.708,VALID,0,VALID,24.6361,VALID,11,VALID,0,
2011-09-25, 00:04:04,VALID,1005.02,VALID,0,INVALID,163.685,VALID,0,VALID,24.6148,VALID,11,VALID,0,
2011-09-25, 00:05:04,VALID,1005.02,VALID,0,INVALID,163.716,VALID,0,VALID,24.5953,VALID,10,VALID,0,
2011-09-25, 00:06:04,VALID,1004.99,VALID,0,INVALID,163.731,VALID,0,VALID,24.5972,VALID,343,VALID,0,
2011-09-25, 00:07:04,VALID,1004.95,VALID,0,INVALID,163.746,VALID,0,VALID,24.6166,VALID,337,VALID,0,
2011-09-25, 00:08:04,VALID,1004.94,VALID,0,INVALID,163.716,VALID,0,VALID,24.5972,VALID,345,VALID,0,
2011-09-25, 00:09:04,VALID,1004.91,VALID,0,INVALID,163.693,VALID,0.100563,VALID,24.6166,VALID,353,VALID,0,
2011-09-25, 00:10:04,VALID,1004.86,VALID,0,INVALID,163.716,VALID,0,VALID,24.6166,VALID,349,VALID,0,
2011-09-25, 00:11:04,VALID,1004.82,VALID,0,INVALID,163.701,VALID,0,VALID,24.6166,VALID,349,VALID,0,
2011-09-25, 00:12:04,VALID,1004.78,VALID,0,INVALID,163.723,VALID,0.100563,VALID,24.6361,VALID,342,VALID,0,
2011-09-25, 00:13:04,VALID,1004.73,VALID,0,INVALID,163.693,VALID,0,VALID,24.6361,VALID,332,VALID,0,
2011-09-25, 00:14:04,VALID,1004.72,VALID,0,INVALID,163.723,VALID,0,VALID,24.6361,VALID,354,VALID,0,
2011-09-25, 00:15:04,VALID,1004.67,VALID,0,INVALID,163.716,VALID,0,VALID,24.6361,VALID,330,VALID,0,
2011-09-25, 00:16:04,VALID,1004.65,VALID,0,INVALID,163.693,VALID,0,VALID,24.6556,VALID,346,VALID,0,
2011-09-25, 00:17:04,VALID,1004.65,VALID,0,INVALID,163.693,VALID,0,VALID,24.6556,VALID,342,VALID,0,
2011-09-25, 00:18:04,VALID,1004.62,VALID,0,INVALID,163.739,VALID,0.100563,VALID,24.6556,VALID,325,VALID,0,
2011-09-25, 00:19:04,VALID,1004.58,VALID,0,INVALID,163.716,VALID,0,VALID,24.6556,VALID,353,VALID,0,
2011-09-25, 00:20:04,VALID,1004.57,VALID,0,INVALID,163.739,VALID,0.100563,VALID,24.6556,VALID,332,VALID,0,
2011-09-25, 00:21:04,VALID,1004.52,VALID,0,INVALID,163.701,VALID,0,VALID,24.6556,VALID,346,VALID,0,
2011-09-25, 00:22:04,VALID,1004.49,VALID,0,INVALID,163.701,VALID,0,VALID,24.6769,VALID,326,VALID,0,
2011-09-25, 00:23:04,VALID,1004.47,VALID,0,INVALID,163.693,VALID,0,VALID,24.6556,VALID,346,VALID,0,
2011-09-25, 00:24:04,VALID,1004.46,VALID,0,INVALID,163.708,VALID,0,VALID,24.6361,VALID,349,VALID,0,
2011-09-25, 00:25:04,VALID,1004.44,VALID,0,INVALID,163.701,VALID,0,VALID,24.6556,VALID,353,VALID,0,
2011-09-25, 00:26:04,VALID,1004.41,VALID,0,INVALID,163.693,VALID,0,VALID,24.6769,VALID,340,VALID,0,
2011-09-25, 00:27:04,VALID,1004.39,VALID,0,INVALID,163.693,VALID,0,VALID,24.6342,VALID,346,VALID,0,
2011-09-25, 00:28:04,VALID,1004.35,VALID,0,INVALID,163.716,VALID,0,VALID,24.6556,VALID,360,VALID,0,
2011-09-25, 00:29:04,VALID,1004.33,VALID,0,INVALID,163.708,VALID,0,VALID,24.6556,VALID,359,VALID,0,
2011-09-25, 00:30:04,VALID,1004.27,VALID,0,INVALID,163.693,VALID,0,VALID,24.6556,VALID,353,VALID,0,
2011-09-25, 00:31:04,VALID,1004.25,VALID,0,INVALID,163.731,VALID,0,VALID,24.6556,VALID,335,VALID,0,
2011-09-25, 00:32:04,VALID,1004.21,VALID,0,INVALID,163.678,VALID,0,VALID,24.6732,VALID,338,VALID,0,
2011-09-25, 00:33:04,VALID,1004.17,VALID,0,INVALID,163.708,VALID,0,VALID,24.6537,VALID,348,VALID,0,
2011-09-25, 00:34:04,VALID,1004.2,VALID,0,INVALID,163.716,VALID,0,VALID,24.714,VALID,348,VALID,0,
2011-09-25, 00:35:04,VALID,1004.16,VALID,0,INVALID,163.685,VALID,0,VALID,24.7335,VALID,346,VALID,0,
2011-09-25, 00:36:04,VALID,1004.14,VALID,0,INVALID,163.716,VALID,0,VALID,24.7529,VALID,357,VALID,0,
2011-09-25, 00:37:04,VALID,1004.12,VALID,0,INVALID,163.701,VALID,0,VALID,24.7529,VALID,351,VALID,0,
2011-09-25, 00:38:04,VALID,1004.12,VALID,0,INVALID,163.708,VALID,0,VALID,24.7705,VALID,352,VALID,0,
2011-09-25, 00:39:04,VALID,1004.15,VALID,0,INVALID,163.693,VALID,0,VALID,24.8132,VALID,355,VALID,0,
2011-09-25, 00:40:04,VALID,1004.14,VALID,0,INVALID,163.701,VALID,0,VALID,24.8113,VALID,347,VALID,0,
2011-09-25, 00:41:04,VALID,1004.17,VALID,0,INVALID,163.701,VALID,0,VALID,24.79,VALID,348,VALID,0,
2011-09-25, 00:42:04,VALID,1004.19,VALID,0,INVALID,163.701,VALID,0,VALID,24.8327,VALID,353,VALID,0,
2011-09-25, 00:43:04,VALID,1004.21,VALID,0,INVALID,163.701,VALID,0,VALID,24.8113,VALID,346,VALID,0,
2011-09-25, 00:44:04,VALID,1004.23,VALID,0,INVALID,163.678,VALID,0,VALID,24.8113,VALID,355,VALID,0,
2011-09-25, 00:45:04,VALID,1004.24,VALID,0,INVALID,163.685,VALID,0,VALID,24.8327,VALID,349,VALID,0,
2011-09-25, 00:46:04,VALID,1004.26,VALID,0,INVALID,163.701,VALID,0,VALID,24.8308,VALID,352,VALID,0,
2011-09-25, 00:47:04,VALID,1004.24,VALID,0,INVALID,163.701,VALID,0,VALID,24.8503,VALID,352,VALID,0,
2011-09-25, 00:48:04,VALID,1004.24,VALID,0,INVALID,163.693,VALID,0,VALID,24.93,VALID,356,VALID,0,
2011-09-25, 00:49:04,VALID,1004.22,VALID,0,INVALID,163.685,VALID,0,VALID,24.9476,VALID,345,VALID,0,
2011-09-25, 00:50:04,VALID,1004.21,VALID,0,INVALID,163.716,VALID,0,VALID,24.9476,VALID,334,VALID,0,
2011-09-25, 00:51:04,VALID,1004.17,VALID,0,INVALID,163.708,VALID,0,VALID,24.9671,VALID,355,VALID,0,
2011-09-25, 00:52:04,VALID,1004.18,VALID,0,INVALID,163.685,VALID,0,VALID,24.9866,VALID,359,VALID,0,
2011-09-25, 00:53:04,VALID,1004.16,VALID,0,INVALID,163.67,VALID,0,VALID,24.9866,VALID,1,VALID,0,
2011-09-25, 00:54:04,VALID,1004.15,VALID,0,INVALID,163.701,VALID,0,VALID,24.9866,VALID,343,VALID,0,
2011-09-25, 00:55:04,VALID,1004.15,VALID,0,INVALID,163.67,VALID,0,VALID,24.9476,VALID,23,VALID,0,
2011-09-25, 00:56:04,VALID,1004.15,VALID,0,INVALID,163.678,VALID,0,VALID,24.9282,VALID,21,VALID,0,
2011-09-25, 00:57:04,VALID,1004.14,VALID,0,INVALID,163.647,VALID,0,VALID,24.9087,VALID,14,VALID,0,
2011-09-25, 00:58:04,VALID,1004.16,VALID,0,INVALID,163.662,VALID,0,VALID,24.9282,VALID,344,VALID,0,
2011-09-25, 00:59:04,VALID,1004.15,VALID,0,INVALID,163.701,VALID,0,VALID,24.9087,VALID,349,VALID,0,
2011-09-25, 01:00:04,VALID,1004.16,VALID,0,INVALID,163.685,VALID,0.100563,VALID,24.8892,VALID,353,VALID,0,
2011-09-25, 01:01:04,VALID,1004.16,VALID,0,INVALID,163.693,VALID,0,VALID,24.8892,VALID,355,VALID,0,
2011-09-25, 01:02:04,VALID,1004.15,VALID,0,INVALID,163.678,VALID,0,VALID,24.8911,VALID,354,VALID,0,
2011-09-25, 01:03:04,VALID,1004.16,VALID,0,INVALID,163.693,VALID,0,VALID,24.8697,VALID,344,VALID,0,
2011-09-25, 01:04:04,VALID,1004.16,VALID,0,INVALID,163.685,VALID,0,VALID,24.8697,VALID,341,VALID,0,
2011-09-25, 01:05:04,VALID,1004.14,VALID,0,INVALID,163.678,VALID,0,VALID,24.8697,VALID,355,VALID,0,
2011-09-25, 01:06:04,VALID,1004.1,VALID,0,INVALID,163.685,VALID,0,VALID,24.8697,VALID,339,VALID,0,
2011-09-25, 01:07:04,VALID,1004.06,VALID,0,INVALID,163.678,VALID,0,VALID,24.8697,VALID,356,VALID,0,
2011-09-25, 01:08:04,VALID,1004.02,VALID,0,INVALID,163.678,VALID,0,VALID,24.8911,VALID,355,VALID,0,
2011-09-25, 01:09:04,VALID,1003.98,VALID,0,INVALID,163.662,VALID,0,VALID,24.8911,VALID,347,VALID,0,
2011-09-25, 01:10:04,VALID,1003.91,VALID,0,INVALID,163.716,VALID,0,VALID,24.8697,VALID,354,VALID,0,
2011-09-25, 01:11:04,VALID,1003.91,VALID,0,INVALID,163.685,VALID,0,VALID,24.8503,VALID,2,VALID,0,
2011-09-25, 01:12:04,VALID,1003.84,VALID,0,INVALID,163.678,VALID,0,VALID,24.8308,VALID,346,VALID,0,
2011-09-25, 01:13:04,VALID,1003.81,VALID,0,INVALID,163.701,VALID,0,VALID,24.8716,VALID,358,VALID,0,
2011-09-25, 01:14:04,VALID,1003.76,VALID,0,INVALID,163.716,VALID,0,VALID,24.8522,VALID,355,VALID,0,
2011-09-25, 01:15:04,VALID,1003.76,VALID,0,INVALID,163.693,VALID,0,VALID,24.8113,VALID,352,VALID,0,
2011-09-25, 01:16:04,VALID,1003.7,VALID,0,INVALID,163.662,VALID,0,VALID,24.7919,VALID,347,VALID,0,
2011-09-25, 01:17:04,VALID,1003.68,VALID,0,INVALID,163.723,VALID,0,VALID,24.7937,VALID,1,VALID,0,
2011-09-25, 01:18:04,VALID,1003.64,VALID,0,INVALID,163.701,VALID,0,VALID,24.7919,VALID,359,VALID,0,
2011-09-25, 01:19:04,VALID,1003.66,VALID,0,INVALID,163.693,VALID,0,VALID,24.751,VALID,342,VALID,0,
2011-09-25, 01:20:04,VALID,1003.66,VALID,0,INVALID,163.693,VALID,0,VALID,24.7529,VALID,359,VALID,0,
2011-09-25, 01:21:04,VALID,1003.62,VALID,0,INVALID,163.67,VALID,0,VALID,24.7548,VALID,346,VALID,0,
2011-09-25, 01:22:04,VALID,1003.62,VALID,0,INVALID,163.685,VALID,0,VALID,24.7529,VALID,9,VALID,0,
2011-09-25, 01:23:04,VALID,1003.57,VALID,0,INVALID,163.716,VALID,0,VALID,24.7529,VALID,344,VALID,0,
2011-09-25, 01:24:04,VALID,1003.55,VALID,0,INVALID,163.708,VALID,0,VALID,24.7724,VALID,10,VALID,0,
2011-09-25, 01:25:04,VALID,1003.49,VALID,0,INVALID,163.701,VALID,0,VALID,24.7529,VALID,354,VALID,0,
2011-09-25, 01:26:04,VALID,1003.52,VALID,0,INVALID,163.678,VALID,0,VALID,24.7529,VALID,348,VALID,0,
2011-09-25, 01:27:04,VALID,1003.51,VALID,0,INVALID,163.701,VALID,0,VALID,24.7724,VALID,6,VALID,0,
2011-09-25, 01:28:04,VALID,1003.55,VALID,0,INVALID,163.701,VALID,0,VALID,24.7937,VALID,353,VALID,0,
2011-09-25, 01:29:04,VALID,1003.53,VALID,0,INVALID,163.701,VALID,0,VALID,24.8308,VALID,3,VALID,0,
2011-09-25, 01:30:04,VALID,1003.54,VALID,0,INVALID,163.693,VALID,0,VALID,24.8697,VALID,349,VALID,0,
2011-09-25, 01:31:04,VALID,1003.57,VALID,0,INVALID,163.67,VALID,0,VALID,24.9106,VALID,354,VALID,0,
2011-09-25, 01:32:04,VALID,1003.57,VALID,0,INVALID,163.708,VALID,0,VALID,24.9087,VALID,1,VALID,0,
2011-09-25, 01:33:04,VALID,1003.55,VALID,0,INVALID,163.685,VALID,0,VALID,24.9087,VALID,14,VALID,0,
2011-09-25, 01:34:04,VALID,1003.56,VALID,0,INVALID,163.716,VALID,0,VALID,24.9282,VALID,23,VALID,0,
2011-09-25, 01:35:04,VALID,1003.55,VALID,0,INVALID,163.693,VALID,0.100563,VALID,24.9476,VALID,351,VALID,0,
2011-09-25, 01:36:04,VALID,1003.56,VALID,0,INVALID,163.701,VALID,0,VALID,24.9476,VALID,13,VALID,0,
2011-09-25, 01:37:04,VALID,1003.56,VALID,0,INVALID,163.716,VALID,0,VALID,24.9263,VALID,18,VALID,0,
2011-09-25, 01:38:04,VALID,1003.57,VALID,0,INVALID,163.693,VALID,0.100563,VALID,24.969,VALID,8,VALID,0,
2011-09-25, 01:39:04,VALID,1003.56,VALID,0,INVALID,163.678,VALID,0,VALID,24.9282,VALID,11,VALID,0,
2011-09-25, 01:40:04,VALID,1003.56,VALID,0,INVALID,163.693,VALID,0,VALID,24.9087,VALID,356,VALID,0,
2011-09-25, 01:41:04,VALID,1003.53,VALID,0,INVALID,163.67,VALID,0,VALID,24.8679,VALID,356,VALID,0,
2011-09-25, 01:42:04,VALID,1003.52,VALID,0,INVALID,163.701,VALID,0,VALID,24.8892,VALID,13,VALID,0,
2011-09-25, 01:43:04,VALID,1003.48,VALID,0,INVALID,163.693,VALID,0,VALID,24.8892,VALID,7,VALID,0,
2011-09-25, 01:44:04,VALID,1003.46,VALID,0,INVALID,163.67,VALID,0,VALID,24.8697,VALID,5,VALID,0,
2011-09-25, 01:45:04,VALID,1003.44,VALID,0,INVALID,163.67,VALID,0,VALID,24.9106,VALID,3,VALID,0,
2011-09-25, 01:46:04,VALID,1003.44,VALID,0,INVALID,163.693,VALID,0,VALID,24.8911,VALID,31,VALID,0,
2011-09-25, 01:47:04,VALID,1003.4,VALID,0,INVALID,163.693,VALID,0,VALID,24.8308,VALID,344,VALID,0,
2011-09-25, 01:48:04,VALID,1003.39,VALID,0,INVALID,163.67,VALID,0,VALID,24.8113,VALID,357,VALID,0,
2011-09-25, 01:49:04,VALID,1003.37,VALID,0,INVALID,163.693,VALID,0,VALID,24.7937,VALID,7,VALID,0,
2011-09-25, 01:50:04,VALID,1003.34,VALID,0,INVALID,163.716,VALID,0,VALID,24.7529,VALID,3,VALID,0,
2011-09-25, 01:51:04,VALID,1003.35,VALID,0,INVALID,163.693,VALID,0,VALID,24.8132,VALID,17,VALID,0,
2011-09-25, 01:52:04,VALID,1003.33,VALID,0,INVALID,163.655,VALID,0,VALID,24.7919,VALID,16,VALID,0,
2011-09-25, 01:53:04,VALID,1003.32,VALID,0,INVALID,163.693,VALID,0,VALID,24.8327,VALID,25,VALID,0,
2011-09-25, 01:54:04,VALID,1003.32,VALID,0,INVALID,163.708,VALID,0,VALID,24.9087,VALID,355,VALID,0,
2011-09-25, 01:55:04,VALID,1003.32,VALID,0,INVALID,163.655,VALID,0,VALID,24.9087,VALID,2,VALID,0,
2011-09-25, 01:56:04,VALID,1003.33,VALID,0,INVALID,163.678,VALID,0,VALID,24.9671,VALID,22,VALID,0,
2011-09-25, 01:57:04,VALID,1003.35,VALID,0,INVALID,163.701,VALID,0,VALID,25.006,VALID,8,VALID,0,
2011-09-25, 01:58:04,VALID,1003.31,VALID,0,INVALID,163.678,VALID,0,VALID,25.0079,VALID,359,VALID,0,
2011-09-25, 01:59:04,VALID,1003.32,VALID,0,INVALID,163.678,VALID,0,VALID,24.9671,VALID,28,VALID,0,
2011-09-25, 02:00:04,VALID,1003.34,VALID,0,INVALID,163.67,VALID,0,VALID,24.9282,VALID,11,VALID,0,
2011-09-25, 02:01:04,VALID,1003.3,VALID,0,INVALID,163.678,VALID,0,VALID,24.8911,VALID,14,VALID,0,
2011-09-25, 02:02:04,VALID,1003.33,VALID,0,INVALID,163.693,VALID,0,VALID,24.8697,VALID,47,VALID,0,
2011-09-25, 02:03:04,VALID,1003.33,VALID,0,INVALID,163.685,VALID,0,VALID,24.8735,VALID,14,VALID,0,
2011-09-25, 02:04:04,VALID,1003.3,VALID,0,INVALID,163.655,VALID,0,VALID,24.8132,VALID,15,VALID,0,
2011-09-25, 02:05:04,VALID,1003.31,VALID,0,INVALID,163.693,VALID,0,VALID,24.8308,VALID,54,VALID,0,
2011-09-25, 02:06:04,VALID,1003.34,VALID,0,INVALID,163.685,VALID,0,VALID,24.8327,VALID,12,VALID,0,
2011-09-25, 02:07:04,VALID,1003.32,VALID,0,INVALID,163.685,VALID,0,VALID,24.8113,VALID,35,VALID,0,
2011-09-25, 02:08:04,VALID,1003.34,VALID,0,INVALID,163.701,VALID,0,VALID,24.8697,VALID,24,VALID,0,
2011-09-25, 02:09:04,VALID,1003.33,VALID,0,INVALID,163.723,VALID,0,VALID,24.8892,VALID,19,VALID,0,
2011-09-25, 02:10:04,VALID,1003.3,VALID,0,INVALID,163.701,VALID,0,VALID,24.9495,VALID,21,VALID,0,
2011-09-25, 02:11:04,VALID,1003.29,VALID,0,INVALID,163.685,VALID,0,VALID,24.9476,VALID,10,VALID,0,
2011-09-25, 02:12:04,VALID,1003.28,VALID,0,INVALID,163.708,VALID,0,VALID,24.9282,VALID,9,VALID,0,
2011-09-25, 02:13:04,VALID,1003.27,VALID,0,INVALID,163.678,VALID,0,VALID,24.9495,VALID,352,VALID,0,
2011-09-25, 02:14:04,VALID,1003.27,VALID,0,INVALID,163.693,VALID,0,VALID,24.93,VALID,3,VALID,0,
2011-09-25, 02:15:04,VALID,1003.27,VALID,0,INVALID,163.678,VALID,0,VALID,24.9106,VALID,28,VALID,0,
2011-09-25, 02:16:04,VALID,1003.24,VALID,0,INVALID,163.685,VALID,0,VALID,24.8716,VALID,2,VALID,0,
2011-09-25, 02:17:04,VALID,1003.23,VALID,0,INVALID,163.685,VALID,0,VALID,24.8697,VALID,29,VALID,0,
2011-09-25, 02:18:04,VALID,1003.21,VALID,0,INVALID,163.693,VALID,0,VALID,24.8892,VALID,17,VALID,0,
2011-09-25, 02:19:04,VALID,1003.21,VALID,0,INVALID,163.685,VALID,0,VALID,24.93,VALID,356,VALID,0,
2011-09-25, 02:20:04,VALID,1003.16,VALID,0,INVALID,163.685,VALID,0,VALID,24.8892,VALID,24,VALID,0,
2011-09-25, 02:21:04,VALID,1003.15,VALID,0,INVALID,163.685,VALID,0,VALID,24.8911,VALID,354,VALID,0,
2011-09-25, 02:22:04,VALID,1003.13,VALID,0,INVALID,163.701,VALID,0,VALID,24.8716,VALID,352,VALID,0,
2011-09-25, 02:23:04,VALID,1003.11,VALID,0,INVALID,163.708,VALID,0,VALID,24.8327,VALID,349,VALID,0,
2011-09-25, 02:24:04,VALID,1003.1,VALID,0,INVALID,163.701,VALID,0,VALID,24.7743,VALID,360,VALID,0,
2011-09-25, 02:25:04,VALID,1003.08,VALID,0,INVALID,163.708,VALID,0,VALID,24.7353,VALID,354,VALID,0,
2011-09-25, 02:26:04,VALID,1003.06,VALID,0,INVALID,163.685,VALID,0,VALID,24.7335,VALID,355,VALID,0,
2011-09-25, 02:27:04,VALID,1003.03,VALID,0,INVALID,163.693,VALID,0,VALID,24.7937,VALID,2,VALID,0,
2011-09-25, 02:28:04,VALID,1003.05,VALID,0,INVALID,163.716,VALID,0,VALID,24.7937,VALID,360,VALID,0,
2011-09-25, 02:29:04,VALID,1002.99,VALID,0,INVALID,163.67,VALID,0,VALID,24.7919,VALID,358,VALID,0,
2011-09-25, 02:30:04,VALID,1003,VALID,0,INVALID,163.678,VALID,0,VALID,24.7724,VALID,352,VALID,0,
2011-09-25, 02:31:04,VALID,1002.97,VALID,0,INVALID,163.708,VALID,0,VALID,24.7548,VALID,357,VALID,0,
2011-09-25, 02:32:04,VALID,1002.95,VALID,0,INVALID,163.685,VALID,0,VALID,24.7335,VALID,342,VALID,0,
2011-09-25, 02:33:04,VALID,1002.95,VALID,0,INVALID,163.701,VALID,0,VALID,24.7353,VALID,22,VALID,0,
2011-09-25, 02:34:04,VALID,1002.9,VALID,0,INVALID,163.708,VALID,0,VALID,24.675,VALID,14,VALID,0,
2011-09-25, 02:35:04,VALID,1002.9,VALID,0,INVALID,163.708,VALID,0,VALID,24.6964,VALID,10,VALID,0,
2011-09-25, 02:36:04,VALID,1002.89,VALID,0,INVALID,163.716,VALID,0,VALID,24.6769,VALID,355,VALID,0,
2011-09-25, 02:37:04,VALID,1002.84,VALID,0,INVALID,163.708,VALID,0,VALID,24.6574,VALID,1,VALID,0,
2011-09-25, 02:38:04,VALID,1002.86,VALID,0,INVALID,163.693,VALID,0,VALID,24.6574,VALID,2,VALID,0,
2011-09-25, 02:39:04,VALID,1002.82,VALID,0,INVALID,163.701,VALID,0,VALID,24.6361,VALID,355,VALID,0,
2011-09-25, 02:40:04,VALID,1002.79,VALID,0,INVALID,163.723,VALID,0,VALID,24.638,VALID,16,VALID,0,
2011-09-25, 02:41:04,VALID,1002.79,VALID,0,INVALID,163.701,VALID,0,VALID,24.5777,VALID,1,VALID,0,
2011-09-25, 02:42:04,VALID,1002.79,VALID,0,INVALID,163.701,VALID,0,VALID,24.5796,VALID,351,VALID,0,
2011-09-25, 02:43:04,VALID,1002.77,VALID,0,INVALID,163.701,VALID,0,VALID,24.5601,VALID,350,VALID,0,
2011-09-25, 02:44:04,VALID,1002.76,VALID,0,INVALID,163.716,VALID,0,VALID,24.5193,VALID,358,VALID,0,
2011-09-25, 02:45:04,VALID,1002.77,VALID,0,INVALID,163.723,VALID,0,VALID,24.4998,VALID,352,VALID,0,
2011-09-25, 02:46:04,VALID,1002.77,VALID,0,INVALID,163.739,VALID,0,VALID,24.5017,VALID,351,VALID,0,
2011-09-25, 02:47:04,VALID,1002.78,VALID,0,INVALID,163.746,VALID,0,VALID,24.5017,VALID,360,VALID,0,
2011-09-25, 02:48:04,VALID,1002.76,VALID,0,INVALID,163.701,VALID,0,VALID,24.4822,VALID,348,VALID,0,
2011-09-25, 02:49:04,VALID,1002.8,VALID,0,INVALID,163.708,VALID,0,VALID,24.4822,VALID,348,VALID,0,
2011-09-25, 02:50:04,VALID,1002.8,VALID,0,INVALID,163.716,VALID,0,VALID,24.4628,VALID,343,VALID,0,
2011-09-25, 02:51:04,VALID,1002.82,VALID,0,INVALID,163.716,VALID,0,VALID,24.4433,VALID,1,VALID,0,
2011-09-25, 02:52:04,VALID,1002.79,VALID,0,INVALID,163.723,VALID,0,VALID,24.4238,VALID,360,VALID,0,
2011-09-25, 02:53:04,VALID,1002.8,VALID,0,INVALID,163.716,VALID,0,VALID,24.4043,VALID,352,VALID,0,
2011-09-25, 02:54:04,VALID,1002.79,VALID,0,INVALID,163.693,VALID,0,VALID,24.3849,VALID,360,VALID,0,
2011-09-25, 02:55:04,VALID,1002.81,VALID,0,INVALID,163.746,VALID,0,VALID,24.3849,VALID,356,VALID,0,
2011-09-25, 02:56:04,VALID,1002.8,VALID,0,INVALID,163.723,VALID,0,VALID,24.3636,VALID,349,VALID,0,
2011-09-25, 02:57:04,VALID,1002.8,VALID,0,INVALID,163.716,VALID,0,VALID,24.383,VALID,359,VALID,0,
2011-09-25, 02:58:04,VALID,1002.8,VALID,0,INVALID,163.708,VALID,0,VALID,24.3849,VALID,358,VALID,0,
2011-09-25, 02:59:04,VALID,1002.81,VALID,0,INVALID,163.716,VALID,0,VALID,24.3849,VALID,358,VALID,0,
2011-09-25, 03:00:04,VALID,1002.82,VALID,0,INVALID,163.716,VALID,0,VALID,24.3849,VALID,342,VALID,0,
2011-09-25, 03:01:04,VALID,1002.8,VALID,0,INVALID,163.731,VALID,0,VALID,24.4257,VALID,2,VALID,0,
2011-09-25, 03:02:04,VALID,1002.83,VALID,0,INVALID,163.739,VALID,0,VALID,24.383,VALID,341,VALID,0,
2011-09-25, 03:03:04,VALID,1002.82,VALID,0,INVALID,163.723,VALID,0,VALID,24.4043,VALID,334,VALID,0,
2011-09-25, 03:04:04,VALID,1002.8,VALID,0,INVALID,163.739,VALID,0,VALID,24.3849,VALID,345,VALID,0,
2011-09-25, 03:05:04,VALID,1002.85,VALID,0,INVALID,163.708,VALID,0,VALID,24.3636,VALID,3,VALID,0,
2011-09-25, 03:06:04,VALID,1002.83,VALID,0,INVALID,163.701,VALID,0,VALID,24.3459,VALID,348,VALID,0,
2011-09-25, 03:07:04,VALID,1002.87,VALID,0,INVALID,163.716,VALID,0,VALID,24.3246,VALID,346,VALID,0,
2011-09-25, 03:08:04,VALID,1002.87,VALID,0,INVALID,163.754,VALID,0,VALID,24.3654,VALID,349,VALID,0,
2011-09-25, 03:09:04,VALID,1002.89,VALID,0,INVALID,163.746,VALID,0,VALID,24.3459,VALID,345,VALID,0,
2011-09-25, 03:10:04,VALID,1002.89,VALID,0,INVALID,163.716,VALID,0,VALID,24.3459,VALID,352,VALID,0,
2011-09-25, 03:11:04,VALID,1002.88,VALID,0,INVALID,163.708,VALID,0,VALID,24.3265,VALID,338,VALID,0,
2011-09-25, 03:12:04,VALID,1002.89,VALID,0,INVALID,163.731,VALID,0,VALID,24.3265,VALID,345,VALID,0,
2011-09-25, 03:13:04,VALID,1002.9,VALID,0,INVALID,163.708,VALID,0,VALID,24.2857,VALID,346,VALID,0,
2011-09-25, 03:14:04,VALID,1002.92,VALID,0,INVALID,163.708,VALID,0.100563,VALID,24.3265,VALID,351,VALID,0,
2011-09-25, 03:15:04,VALID,1002.93,VALID,0,INVALID,163.723,VALID,0,VALID,24.2857,VALID,352,VALID,0,
2011-09-25, 03:16:04,VALID,1002.93,VALID,0,INVALID,163.708,VALID,0,VALID,24.2681,VALID,352,VALID,0,
2011-09-25, 03:17:04,VALID,1002.96,VALID,0,INVALID,163.731,VALID,0,VALID,24.2681,VALID,352,VALID,0,
2011-09-25, 03:18:04,VALID,1002.93,VALID,0,INVALID,163.739,VALID,0,VALID,24.2078,VALID,352,VALID,0,
2011-09-25, 03:19:04,VALID,1002.97,VALID,0,INVALID,163.739,VALID,0,VALID,24.2078,VALID,353,VALID,0,
2011-09-25, 03:20:04,VALID,1002.98,VALID,0,INVALID,163.746,VALID,0,VALID,24.1884,VALID,352,VALID,0,
2011-09-25, 03:21:04,VALID,1002.99,VALID,0,INVALID,163.716,VALID,0,VALID,24.1689,VALID,352,VALID,0,
2011-09-25, 03:22:04,VALID,1002.99,VALID,0,INVALID,163.731,VALID,0,VALID,24.1494,VALID,352,VALID,0,
2011-09-25, 03:23:04,VALID,1003.03,VALID,0,INVALID,163.746,VALID,0,VALID,24.13,VALID,352,VALID,0,
2011-09-25, 03:24:04,VALID,1003.04,VALID,0,INVALID,163.723,VALID,0,VALID,24.0716,VALID,352,VALID,0,
2011-09-25, 03:25:04,VALID,1003.04,VALID,0,INVALID,163.746,VALID,0,VALID,24.0132,VALID,353,VALID,0,
2011-09-25, 03:26:04,VALID,1003.09,VALID,0,INVALID,163.739,VALID,0.100563,VALID,23.9742,VALID,353,VALID,0,
2011-09-25, 03:27:04,VALID,1003.1,VALID,0,INVALID,163.762,VALID,0,VALID,23.9371,VALID,353,VALID,0,
2011-09-25, 03:28:04,VALID,1003.13,VALID,0,INVALID,163.769,VALID,0,VALID,23.8964,VALID,353,VALID,0,
2011-09-25, 03:29:04,VALID,1003.15,VALID,0,INVALID,163.762,VALID,0,VALID,23.8575,VALID,353,VALID,0,
2011-09-25, 03:30:04,VALID,1003.16,VALID,0,INVALID,163.777,VALID,0,VALID,23.838,VALID,347,VALID,0,
2011-09-25, 03:31:04,VALID,1003.17,VALID,0,INVALID,163.769,VALID,0,VALID,23.8593,VALID,347,VALID,0,
2011-09-25, 03:32:04,VALID,1003.19,VALID,0,INVALID,163.8,VALID,0,VALID,23.838,VALID,347,VALID,0,
2011-09-25, 03:33:04,VALID,1003.2,VALID,0,INVALID,163.769,VALID,0,VALID,23.838,VALID,350,VALID,0,
2011-09-25, 03:34:04,VALID,1003.22,VALID,0,INVALID,163.754,VALID,0.100563,VALID,23.8575,VALID,340,VALID,0,
2011-09-25, 03:35:04,VALID,1003.25,VALID,0,INVALID,163.754,VALID,0,VALID,23.9177,VALID,348,VALID,0,
2011-09-25, 03:36:04,VALID,1003.26,VALID,0,INVALID,163.769,VALID,0,VALID,23.9371,VALID,348,VALID,0,
2011-09-25, 03:37:04,VALID,1003.3,VALID,0,INVALID,163.762,VALID,0,VALID,23.9353,VALID,348,VALID,0,
2011-09-25, 03:38:04,VALID,1003.33,VALID,0,INVALID,163.739,VALID,0,VALID,23.9548,VALID,348,VALID,0,
2011-09-25, 03:39:04,VALID,1003.32,VALID,0,INVALID,163.739,VALID,0,VALID,23.9742,VALID,2,VALID,0,
2011-09-25, 03:40:04,VALID,1003.36,VALID,0,INVALID,163.739,VALID,0.100563,VALID,24.0326,VALID,2,VALID,0,
2011-09-25, 03:41:04,VALID,1003.39,VALID,0,INVALID,163.739,VALID,0.100563,VALID,24.0326,VALID,102,VALID,0,
2011-09-25, 03:42:04,VALID,1003.39,VALID,0,INVALID,163.762,VALID,0,VALID,24.0521,VALID,102,VALID,0,
2011-09-25, 03:43:04,VALID,1003.41,VALID,0,INVALID,163.762,VALID,0,VALID,24.0716,VALID,98,VALID,0,
2011-09-25, 03:44:04,VALID,1003.45,VALID,0,INVALID,163.754,VALID,0,VALID,24.1105,VALID,41,VALID,0,
2011-09-25, 03:45:04,VALID,1003.43,VALID,0,INVALID,163.708,VALID,0,VALID,24.1707,VALID,41,VALID,0,
2011-09-25, 03:46:04,VALID,1003.47,VALID,0,INVALID,163.746,VALID,0,VALID,24.1689,VALID,41,VALID,0,
2011-09-25, 03:47:04,VALID,1003.44,VALID,0,INVALID,163.746,VALID,0,VALID,24.1902,VALID,41,VALID,0,
2011-09-25, 03:48:04,VALID,1003.46,VALID,0,INVALID,163.731,VALID,0,VALID,24.1494,VALID,41,VALID,0,
2011-09-25, 03:49:04,VALID,1003.45,VALID,0,INVALID,163.739,VALID,0,VALID,24.1494,VALID,41,VALID,0,
2011-09-25, 03:50:04,VALID,1003.45,VALID,0,INVALID,163.754,VALID,0,VALID,24.1494,VALID,40,VALID,0,
2011-09-25, 03:51:04,VALID,1003.42,VALID,0,INVALID,163.739,VALID,0,VALID,24.1689,VALID,21,VALID,0,
2011-09-25, 03:52:04,VALID,1003.43,VALID,0,INVALID,163.746,VALID,0,VALID,24.1671,VALID,355,VALID,0,
2011-09-25, 03:53:04,VALID,1003.42,VALID,0,INVALID,163.731,VALID,0,VALID,24.2078,VALID,343,VALID,0,
2011-09-25, 03:54:04,VALID,1003.4,VALID,0,INVALID,163.731,VALID,0,VALID,24.206,VALID,351,VALID,0,
2011-09-25, 03:55:04,VALID,1003.43,VALID,0,INVALID,163.731,VALID,0,VALID,24.3265,VALID,349,VALID,0,